Location: Carbonear
(47.7333°N, 53.2500°W)
Time: 03:55:58
(UTC+00:00)

XW-2F - Pass Details

Date: 05 December 2022
Orbit: 471 x 484 km, 97.5° (Epoch: 08 February)

Event Time Altitude Azimuth Distance (km) Brightness Sun altitude
Rises 09:09:21 0° 28° (NNE) 2,535 ? -18.7°
Reaches altitude 10° 09:11:55 10° 48° (NE) 1,654 ? -18.3°
Maximum altitude 09:14:25 18° 93° (E) 1,239 ? -17.9°
Drops below altitude 10° 09:16:55 10° 138° (SE) 1,652 ? -17.5°
Sets 09:19:28 0° 158° (SSE) 2,531 ? -17.0°
